Retour au catalogue

ONEWEB-0229

ActifCommunicationsPO
NORAD 48779·PAYLOAD·🇬🇧 United Kingdom

Lancé May 28, 2021 depuis Vostochny Cosmodrome

Loading…

Prochains Passages (prochaines 24 heures)

TLE

FraisSource: CelesTrak SupGP

Époque: Sep 14, 2026, 17:52 UTC

1 48779C 21045N   26257.74493473  .00001767  00000+0  46997-2 0  2574
2 48779  87.8983 241.3377 0002141  84.9911 330.0663 13.15541728    16

Suivez ONEWEB-0229 en temps réel avec AllMySat

Download on the App Store